FW1023 Weather Reports


time (UTC)temp
F
wind
direction
speed
knots
gust
knots
rain 1hr
in
rain 24hr
in
rain mn
in
humidity
%
barometer
mb
20260506124424 76 45 1.7 7.8 0.00 0.01 0.00 80 1009.8
20260506123913 76 0 4.3 9.6 0.00 0.01 0.00 81 1009.7
20260506123404 76 23 3.5 9.6 0.00 0.01 0.00 81 1009.7
20260506122853 76 23 3.5 7.0 0.00 0.01 0.00 82 1010.0
20260506122345 75 45 1.7 7.0 0.00 0.01 0.00 83 1009.8
20260506121833 74 23 3.5 7.0 0.00 0.01 0.00 84 1009.9
20260506121324 74 0 3.5 7.0 0.00 0.01 0.00 85 1010.0
20260506120812 73 68 3.5 7.8 0.00 0.01 0.00 86 1009.8
20260506120302 73 23 3.5 7.8 0.00 0.01 0.00 87 1009.9
20260506115751 72 23 3.5 7.0 0.00 0.01 0.00 87 1009.7
20260506115242 72 45 1.7 7.0 0.00 0.01 0.00 88 1010.0
20260506114732 72 45 2.6 7.0 0.00 0.01 0.00 88 1009.7
20260506114222 71 45 2.6 5.2 0.00 0.01 0.00 89 1009.9
20260506113711 70 0 1.7 5.2 0.00 0.01 0.00 91 1009.8
20260506113201 70 68 1.7 5.2 0.00 0.01 0.00 92 1009.9
20260506112651 70 68 1.7 5.2 0.00 0.01 0.00 92 1010.0
20260506111122 69 68 1.7 3.5 0.00 0.01 0.00 93 1009.9
20260506110611 69 90 2.6 3.5 0.00 0.01 0.00 93 1009.9
20260506105551 69 68 0.9 3.5 0.00 0.01 0.00 93 1009.6
20260506105040 69 68 0.9 3.5 0.00 0.01 0.00 93 1009.7
20260506104532 69 68 1.7 3.5 0.00 0.01 0.00 94 1009.6
20260506103510 69 113 1.7 3.5 0.00 0.01 0.00 93 1009.7
20260506101939 69 68 1.7 3.5 0.00 0.01 0.00 93 1009.4
20260506101429 69 45 1.7 5.2 0.00 0.01 0.00 94 1009.3
20260506100931 69 68 1.7 5.2 0.00 0.01 0.00 93 1009.0
20260506095858 69 68 0.9 3.5 0.00 0.01 0.00 93 1009.0
20260506095348 69 23 1.7 5.2 0.00 0.01 0.00 93 1009.0
20260506094328 69 45 1.7 3.5 0.00 0.01 0.00 94 1009.0
20260506093818 69 45 0.0 3.5 0.00 0.01 0.00 94 1009.4
20260506092757 68 68 0.0 3.5 0.00 0.01 0.00 94 1009.2
20260506092248 68 68 0.9 3.5 0.00 0.01 0.00 94 1008.8
20260506091737 68 68 0.9 3.5 0.00 0.01 0.00 94 1009.4
20260506090717 69 90 0.0 3.5 0.00 0.01 0.00 93 1009.0
20260506090210 69 90 0.0 3.5 0.00 0.01 0.00 93 1008.9
20260506085658 69 90 0.9 3.5 0.00 0.01 0.00 93 1008.9
20260506085146 69 90 1.7 3.5 0.00 0.01 0.00 93 1008.7
20260506084128 69 45 1.7 3.5 0.00 0.01 0.00 93 1009.0
20260506083617 69 68 0.0 3.5 0.00 0.01 0.00 92 1009.2
20260506083106 69 23 1.7 3.5 0.00 0.01 0.00 92 1009.2
20260506082556 69 45 1.7 3.5 0.00 0.01 0.00 92 1009.3
20260506082047 69 68 0.9 5.2 0.00 0.01 0.00 92 1009.6
20260506081027 69 45 2.6 5.2 0.00 0.01 0.00 92 1009.3
20260506073414 70 68 0.0 3.5 0.00 0.01 0.00 91 1009.9
20260506072904 70 90 1.7 3.5 0.00 0.01 0.00 91 1010.0
20260506072354 70 90 0.9 3.5 0.00 0.01 0.00 91 1009.8
20260506071844 70 68 0.0 3.5 0.00 0.01 0.00 91 1010.0
20260506071334 70 68 0.9 3.5 0.00 0.01 0.00 91 1010.2
20260506070823 70 90 0.9 3.5 0.00 0.01 0.00 91 1010.0
20260506062153 70 23 1.7 5.2 0.00 0.01 0.00 92 1010.2
20260506061643 70 45 2.6 5.2 0.00 0.01 0.00 92 1010.3
20260506061133 71 45 1.7 5.2 0.00 0.01 0.00 92 1010.1
20260506060623 71 45 1.7 5.2 0.00 0.01 0.00 92 1010.4
20260506060124 71 0 3.5 6.1 0.00 0.01 0.00 92 1010.5
20260506050931 71 45 2.6 7.8 0.00 0.01 0.00 93 1011.0
20260506050420 72 45 3.5 7.8 0.00 0.01 0.00 93 1010.8
20260506044850 71 23 2.6 5.2 0.00 0.01 0.00 92 1010.4
20260506044343 71 68 1.7 5.2 0.00 0.01 0.00 92 1010.6
20260506043830 71 45 2.6 5.2 0.00 0.01 0.00 92 1010.4
20260506043320 71 45 0.9 6.1 0.00 0.01 0.00 91 1010.4
20260506042809 71 23 3.5 6.1 0.00 0.01 0.00 91 1010.3
20260506042312 71 23 3.5 6.1 0.00 0.01 0.00 91 1010.6
20260506041749 71 45 0.0 6.1 0.00 0.01 0.00 91 1010.5
20260506040728 71 45 2.6 3.5 0.00 0.01 0.00 91 1010.5
20260506035708 70 23 1.7 3.5 0.00 0.01 0.00 91 1010.9
20260506035158 70 68 0.9 3.5 0.00 0.01 0.00 91 1010.7
20260506034648 70 0 1.7 3.5 0.00 0.01 0.00 91 1010.9
20260506033628 70 68 1.7 3.5 0.00 0.01 0.00 91 1010.7
20260506033118 70 23 1.7 5.2 0.00 0.01 0.00 90 1010.6
20260506032608 70 45 1.7 5.2 0.00 0.01 0.00 90 1010.7
20260506032057 70 45 0.9 6.1 0.00 0.01 0.00 90 1010.6
20260506031548 70 68 2.6 7.0 0.00 0.01 0.00 89 1010.8
20260506031037 70 90 3.5 7.0 0.00 0.01 0.00 89 1010.7
20260506030527 70 90 0.0 5.2 0.00 0.01 0.00 88 1010.9
20260506030004 70 68 2.6 5.2 0.00 0.01 0.01 88 1010.6
20260506024957 70 90 0.9 6.1 0.00 0.01 0.01 89 1010.7
20260506024447 69 113 0.0 6.1 0.00 0.01 0.01 91 1010.7
20260506023937 69 68 1.7 6.1 0.00 0.01 0.01 92 1010.9
20260506022405 69 68 2.6 5.2 0.00 0.01 0.01 92 1010.9
20260506021856 70 90 1.7 5.2 0.00 0.01 0.01 91 1011.0
20260506021358 70 90 3.5 6.1 0.00 0.01 0.01 91 1010.7
20260506020836 70 113 1.7 6.1 0.00 0.01 0.01 90 1011.0
20260506020326 70 45 1.7 6.1 0.00 0.01 0.01 90 1011.1
20260506015815 70 135 1.7 5.2 0.00 0.01 0.01 90 1011.2
20260506015306 70 135 1.7 6.1 0.00 0.01 0.01 90 1011.4
20260506014755 70 135 1.7 6.1 0.00 0.01 0.01 90 1011.1
20260506013735 71 135 0.0 3.5 0.00 0.01 0.01 92 1011.1
20260506013225 71 90 0.0 3.5 0.00 0.01 0.01 92 1011.1
20260506012714 72 203 0.9 3.5 0.00 0.01 0.01 93 1011.0
20260506012204 72 90 1.7 3.5 0.00 0.01 0.01 92 1010.8
20260506011157 72 68 0.0 0.0 0.00 0.01 0.01 92 1010.8
20260506010634 73 68 0.0 0.0 0.00 0.01 0.01 92 1010.6
20260506010124 73 203 0.0 1.7 0.00 0.01 0.01 92 1010.5
20260506005614 73 113 0.0 3.5 0.00 0.01 0.01 92 1010.8
20260506005104 73 90 0.9 3.5 0.00 0.01 0.01 92 1010.7
20260506003533 74 45 0.0 1.7 0.00 0.01 0.01 93 1010.9
20260506003023 74 158 0.0 1.7 0.00 0.01 0.01 93 1010.6
20260506002513 74 158 0.0 3.5 0.00 0.01 0.01 92 1010.7
20260506002004 75 248 0.0 3.5 0.00 0.01 0.01 91 1010.8
20260506001453 75 203 1.7 3.5 0.00 0.01 0.01 91 1010.6
20260506000956 75 225 0.0 0.0 0.00 0.01 0.01 90 1010.6
20260506000433 76 225 0.0 1.7 0.00 0.01 0.01 90 1010.5
20260505235922 76 225 0.0 3.5 0.00 0.01 0.01 89 1010.5
20260505235412 76 225 0.9 3.5 0.00 0.01 0.01 89 1010.7
20260505234902 75 248 0.0 1.7 0.00 0.01 0.01 91 1010.1
20260505234351 75 225 0.0 3.5 0.00 0.01 0.01 91 1010.4
20260505233842 75 45 0.0 7.0 0.00 0.01 0.01 91 1010.3
20260505233332 75 180 3.5 7.0 0.00 0.01 0.01 92 1010.2
20260505232822 75 248 4.3 7.0 0.01 0.01 0.01 91 1010.3
20260505232312 76 203 1.7 5.2 0.01 0.01 0.01 88 1010.0
20260505231801 76 248 0.0 1.7 0.01 0.01 0.01 89 1009.8
20260505231251 76 248 0.0 1.7 0.01 0.01 0.01 89 1009.4
20260505230741 76 23 0.9 1.7 0.01 0.01 0.01 89 1008.8
20260505230231 76 0 0.9 1.7 0.01 0.01 0.01 89 1008.9
20260505225211 76 45 0.0 1.7 0.01 0.01 0.01 88 1009.0
20260505224701 76 23 0.0 1.7 0.01 0.01 0.01 89 1009.0
20260505224151 76 23 0.0 1.7 0.01 0.01 0.01 89 1009.2
20260505223642 76 23 0.0 1.7 0.01 0.01 0.01 90 1008.7
20260505223130 76 45 0.0 0.0 0.01 0.01 0.01 91 1009.2
20260505222633 76 45 0.0 0.0 0.00 0.00 0.00 91 1009.0
20260505222110 76 45 0.0 0.0 0.00 0.00 0.00 92 1008.9
20260505221601 76 68 0.0 0.0 0.00 0.00 0.00 91 1008.9
20260505221050 76 90 0.0 0.0 0.00 0.00 0.00 91 1009.3
20260505220539 77 113 0.0 0.0 0.00 0.00 0.00 90 1009.3
20260505220029 77 113 0.0 0.0 0.00 0.00 0.00 89 1009.0
20260505215520 77 90 0.0 0.0 0.00 0.00 0.00 88 1009.2
20260505215010 77 90 0.0 0.0 0.00 0.00 0.00 88 1008.7
20260505214459 77 113 0.0 0.0 0.00 0.00 0.00 87 1008.8
20260505213949 78 68 0.0 0.0 0.00 0.00 0.00 86 1008.7
20260505213444 78 68 0.0 0.0 0.00 0.00 0.00 85 1008.5
20260505212929 78 90 0.0 0.0 0.00 0.00 0.00 85 1008.6
20260505212418 78 90 0.0 0.0 0.00 0.00 0.00 85 1008.9
20260505211908 79 113 0.0 0.0 0.00 0.00 0.00 83 1009.0
20260505211400 79 113 0.0 0.0 0.00 0.00 0.00 81 1008.9
20260505210848 79 113 0.0 0.0 0.00 0.00 0.00 81 1009.0
20260505210338 79 113 0.0 0.0 0.00 0.00 0.00 80 1008.6
20260505205828 80 113 0.0 0.0 0.00 0.00 0.00 79 1008.9
20260505205317 80 113 0.0 0.0 0.00 0.00 0.00 79 1009.2
20260505204807 80 113 0.0 0.0 0.00 0.00 0.00 78 1009.0
20260505204258 80 113 0.0 1.7 0.00 0.00 0.00 77 1008.7
20260505203749 80 90 0.0 1.7 0.00 0.00 0.00 77 1009.0
20260505203239 80 90 0.0 3.5 0.00 0.00 0.00 77 1008.7
20260505202727 81 45 0.0 3.5 0.00 0.00 0.00 76 1008.6
20260505201706 81 23 1.7 3.5 0.00 0.00 0.00 75 1009.0
20260505201149 81 68 0.9 1.7 0.00 0.00 0.00 75 1009.2
20260505200647 81 23 0.0 3.5 0.00 0.00 0.00 76 1009.2
20260505200136 81 23 1.7 3.5 0.00 0.00 0.00 76 1009.4
20260505195626 81 45 1.7 3.5 0.00 0.00 0.00 75 1009.0
20260505195115 81 45 1.7 3.5 0.00 0.00 0.00 75 1009.2
20260505194604 81 45 1.7 3.5 0.00 0.00 0.00 74 1009.5
20260505194055 81 23 1.7 3.5 0.00 0.00 0.00 75 1009.3
20260505193546 81 90 0.9 5.2 0.00 0.00 0.00 75 1009.8
20260505193034 81 68 1.7 5.2 0.00 0.00 0.00 74 1009.7
20260505192527 82 23 0.0 3.5 0.00 0.00 0.00 74 1009.4
20260505192002 81 45 1.7 3.5 0.00 0.00 0.00 74 1009.5
20260505191505 81 90 0.0 3.5 0.00 0.00 0.00 74 1009.5
20260505190954 81 45 1.7 3.5 0.00 0.00 0.00 74 1009.5
20260505190444 80 68 0.0 5.2 0.00 0.00 0.00 75 1009.5
20260505185424 80 68 1.7 3.5 0.00 0.00 0.00 76 1009.5
20260505184914 80 68 1.7 3.5 0.00 0.00 0.00 76 1009.4
20260505184404 80 45 1.7 3.5 0.00 0.00 0.00 76 1009.6
20260505183854 80 68 0.0 3.5 0.00 0.00 0.00 76 1009.6
20260505183344 80 23 2.6 3.5 0.00 0.00 0.00 76 1009.7
20260505182833 80 45 1.7 5.2 0.00 0.00 0.00 76 1009.7
20260505182323 80 23 0.9 6.1 0.00 0.00 0.00 76 1009.8
20260505181813 80 23 2.6 6.1 0.00 0.00 0.00 76 1009.8
20260505181306 80 45 3.5 5.2 0.00 0.00 0.00 75 1009.8
20260505180752 80 90 0.9 6.1 0.00 0.00 0.00 75 1009.6
20260505180242 80 68 1.7 6.1 0.00 0.00 0.00 75 1009.7
20260505175732 80 45 3.5 6.1 0.00 0.00 0.00 74 1009.9
20260505174712 81 23 0.9 5.2 0.00 0.00 0.00 73 1009.8
20260505174202 81 23 1.7 6.1 0.00 0.00 0.00 74 1009.9
20260505173141 79 23 1.7 6.1 0.00 0.00 0.00 76 1010.2
20260505172632 79 45 3.5 6.1 0.00 0.00 0.00 76 1010.1
20260505172121 79 68 1.7 3.5 0.00 0.00 0.00 76 1010.2
20260505171611 79 68 1.7 5.2 0.00 0.00 0.00 76 1010.4
20260505171103 79 45 2.6 5.2 0.00 0.00 0.00 76 1010.5
20260505170551 78 23 1.7 7.0 0.00 0.00 0.00 77 1010.4
20260505170032 78 68 1.7 7.0 0.00 0.00 0.00 78 1010.6
20260505165530 79 68 1.7 6.1 0.00 0.00 0.00 76 1010.7
20260505165020 78 23 2.6 5.2 0.00 0.00 0.00 77 1010.8
20260505164510 79 68 2.6 3.5 0.00 0.00 0.00 78 1010.8
20260505163450 78 23 0.0 3.5 0.00 0.00 0.00 78 1011.1
20260505162940 78 90 1.7 3.5 0.00 0.00 0.00 79 1011.3
20260505162430 78 68 0.0 5.2 0.00 0.00 0.00 78 1011.2
20260505161919 78 23 1.7 7.0 0.00 0.00 0.00 79 1011.4
20260505161409 77 23 1.7 7.0 0.00 0.00 0.00 79 1011.3
20260505160349 77 68 1.7 5.2 0.00 0.00 0.00 79 1011.3
20260505152738 73 45 1.7 3.5 0.00 0.00 0.00 84 1011.9
20260505151718 74 45 1.7 1.7 0.00 0.00 0.00 82 1012.0
20260505151208 72 68 0.0 3.5 0.00 0.00 0.00 85 1012.2
20260505150657 72 68 1.7 3.5 0.00 0.00 0.00 85 1012.3
20260505140455 70 68 0.9 3.5 0.00 0.00 0.00 87 1012.5
20260505130254 69 45 0.0 3.5 0.00 0.00 0.00 85 1012.4
20260505124724 69 68 0.0 1.7 0.00 0.00 0.00 85 1012.2